Content
SEND FEEDBACK

Daily
Averages
Monthly
Summary
Norway

EVENES, NORWAY


Home > Europe > Norway
Elevation: 85 feet     Latitude: 68 31N     Longitude: 016 41E

WEATHER
 
SELECT A DAY
Number of Records: 116,984;   Date Range: 7/2/96 - 9/13/14
 
SHARE

PRINT THIS DATA

[ ← Previous Day ]
WEATHER ALMANAC - FEBRUARY 13, 2013
[ Next Day → ]
[ °C ]   °F
Weather ElementAverageHighLow
Temperature28.3 °F30.2 °F (2:50 am)24.8 °F (8:50 am)
Dewpoint18.2 °F21.2 °F (1:50 am)14 °F (8:50 pm)
Humidity66.4 %80 % (7:50 am)55 % (2:50 pm)
Barometer30.27 in30.33 in (1:50 am)30.18 in (9:50 pm)
Wind Speed8.5 mph16.1 mph (9:50 pm)
Weather ElementAverage
Visibility6.2 mi
Wind DirectionSSE (141.1 °)

Weather ElementTotal
Precipitation---
Heating Degree Days37.5 (Base 65)
Averaged from 27 records on February 13, 2013
WEATHER CONDITIONS BREAKOUT
WIND DIRECTION BREAKOUT
WEATHER BY HOUR - FEBRUARY 13, 2013
[ °C ]   °F
Local TimeTemperatureDewpointHumidityBarometerVisibilityWind DirectionWind SpeedGust SpeedPrecipitationEventsConditions
1:50 AM28.4 °F21.2 °F74 %30.33 in6.2 miSouth (180°)6.9 mph
2:20 AM28.4 °F21.2 °F74 %30.33 in6.2 miSouth (180°)6.9 mph
2:50 AM30.2 °F21.2 °F69 %30.33 in6.2 miSouth (180°)6.9 mph
3:20 AM30.2 °F21.2 °F69 %30.30 in6.2 miSSE (150°)9.2 mph
3:50 AM28.4 °F21.2 °F74 %30.30 in6.2 miSE (140°)9.2 mph
4:20 AM28.4 °F19.4 °F69 %30.30 in6.2 miSE (130°)12.7 mph
4:50 AM28.4 °F19.4 °F69 %30.30 in6.2 miSE (140°)9.2 mph
5:20 AM28.4 °F19.4 °F69 %30.30 in6.2 miESE (120°)11.5 mph
5:50 AM26.6 °F19.4 °F74 %30.30 inSSE (160°)4.6 mphClear
6:50 AM26.6 °F19.4 °F74 %30.30 inESE (120°)9.2 mphClear
7:50 AM26.6 °F21.2 °F80 %30.30 inSE (140°)8.1 mphClear
8:50 AM24.8 °F17.6 °F74 %30.30 inSSW (210°)5.8 mphClear
9:50 AM24.8 °F19.4 °F80 %30.30 inVariable3.5 mphClear
10:50 AM28.4 °F17.6 °F64 %30.30 inSE (140°)8.1 mphClear
11:50 AM26.6 °F17.6 °F69 %30.30 inSSE (160°)3.5 mphClear
12:50 PM26.6 °F15.8 °F64 %30.30 inSSE (160°)6.9 mphClear
1:50 PM26.6 °F15.8 °F64 %30.30 in6.2 miSE (140°)9.2 mphScattered Clouds
2:50 PM30.2 °F15.8 °F55 %30.27 inESE (110°)10.4 mphClear
3:50 PM30.2 °F17.6 °F60 %30.27 in6.2 miESE (110°)13.8 mphPartly Cloudy
4:50 PM28.4 °F15.8 °F59 %30.24 in6.2 miVariable5.8 mphPartly Cloudy
5:50 PM28.4 °F17.6 °F64 %30.24 in6.2 miSSE (150°)3.5 mphPartly Cloudy
6:50 PM30.2 °F15.8 °F55 %30.21 inSSE (150°)10.4 mphClear
7:50 PM28.4 °F15.8 °F59 %30.21 inSouth (190°)6.9 mphClear
8:50 PM28.4 °F14.0 °F55 %30.21 in6.2 miSSE (160°)8.1 mphMostly Cloudy
9:50 PM30.2 °F15.8 °F55 %30.18 in6.2 miSouth (170°)16.1 mphMostly Cloudy
10:50 PM30.2 °F17.6 °F60 %30.18 in6.2 miSouth (170°)12.7 mphMostly Cloudy
11:50 PM30.2 °F17.6 °F60 %30.18 in6.2 miSSE (150°)11.5 mphMostly Cloudy
Hourly data recorded from ENEV, located miles away from Evenes, Norway







STORIES FROM OUR PARTNERS